OBJECT V, 51843

Orbit data source: Space-Track

You're viewing an Uncataloged Satellite

Recently launched and/or uncataloged satellites may have evolving metadata. Metadata may include but not limited to: Owner, Maufacturer, Bus, Motor, and Mission.

OBJECT V, 51843 is a Chinese satellite in SSO that was launched on Sun, 27 Feb 2022 UTC via a CHANG ZHENG 8 launch vehicle from the Wenchang Satellite Launch Center (WSC). Unknown objects in Earth's orbit typically refer to objects detected orbiting the Earth but have not yet been identified or cataloged. These objects could be anything from previously untracked satellites, spent rocket stages, debris from satellite collisions, or even natural meteoroids temporarily captured by Earth's gravity.

Loading next visibility...
Identifier
51843, 2022-019V
Orbit
SSO
Country
Flag of CNCN / PRC
Related business
None
Manufacturer
Unknown
Mission
Non-operational Commercial Radar Imaging
Bus & Motor
Unknown
Mass
Unknown
Launch date (UTC)
2022-02-27 (4 years ago)
Launch vehicle
CHANG ZHENG 8
Launch site
Wenchang Satellite Launch Center (WSC)
Object type
Unknown
Shape & HBR
Box + 2 Pan, 2.0 m
Radar Cross Section
2.315 m², Large (>1 m²)

Expand to show TLE details & history
Last TLE update: 12 hours ago

TLE from 12 hours ago
0 OBJECT V
1 51843U 22019V   25286.61012306  .00023301  00000-0  56265-3 0  9993
2 51843  97.3792   4.3502 0006897 339.1126  20.9837 15.41166142201248
Epoch: 2025-10-13T14:38Z
TLE epoch observation values (Epoch: 2025-10-13T14:38:34.632Z)
Latitude
-0.0001°
Longitude
122.29548°
Altitude
441.393 km
Speed
7.65 km/s
True Right ascension
00h 17m 24s
True Declination
0° 00' 00"
Sunlit
Object was in full shadow at epoch
Visualization orbit readout
Latitude
Unknown
Longitude
Unknown
Altitude
Unknown
Speed
Unknown
Apparent Right ascension
Unknown
Apparent Declination
Unknown
Sunlit
N/A
Visualization observer readout
Local Sidereal Time
21:23:26
Azimuth
Unknown
Elevation
Unknown
Doppler factor
Unknown
Orbital elements
Apogee altitude
444.305 km
Perigee altitude
434.901 km
Semi-major axis
6,817.74 km
Eccentricity
0.00069
Inclination
97.3792°
RAAN
4.3502°
Arg. of periapsis
339.1126°
True anomaly
21.01202°
Mean anomaly
20.9837°
Eccentric anomaly
20.99786°
Mean motion
3.85552 °/min
Orbital period
93.37 mins
BSTAR
0.00056265
Loading maneuver chart data...
Computing Atmospheric mass density...
Loading historical data...
Loading historical data...
Loading historical data...
Loading historical data...
Loading historical data...
Loading historical data...
Loading historical data...

Documentation

Showing up to 5 results
|